[[{"header":{"parameterUnit":"m.s-1","parameterCategory":1,"la1":30.2991,"la2":30.254,"lo1":-89.0895,"lo2":-89.0444,"dy":0.0017,"dx":0.0017,"nx":28,"ny":28,"refTime":"2023-10-30T09:00:00:Z","depth":0,"parameterNumber":2,"parameterNumberName":"U-component_of_WINDS"},"data":[0,0,0,0,0,0,0,0,0,0,0,0,0,0,0,0,0,0,0,0,0,0,0,0,0,0,0,0,0,0,0,0,0,0,0,0,0,0,0,0,0,0,0,0,0,0,0,0,0,0,0,0,0,0,0,0,0,0,-0.2657,-0.2657,0,-0.268,-0.268,-0.2681,-0.2677,-0.2677,-0.2676,-0.2676,-0.27,-0.2701,-0.2702,0,0,0,0,0,0,0,0,0,0,0,0,0,-0.2608,-0.2609,-0.2657,-0.2657,-0.2657,-0.268,-0.268,-0.2681,-0.2677,-0.2677,-0.2676,-0.2676,-0.27,-0.2701,-0.2702,0,0,0,0,0,0,0,0,0,0,0,0,0,-0.263,-0.2609,-0.2657,-0.2658,-0.2659,-0.268,-0.268,-0.2681,-0.2677,-0.2677,-0.2676,-0.2676,-0.2699,-0.2701,-0.2702,-0.2724,0,0,-0.2707,-0.2708,0,0,0,0,0,0,0,0,-0.2629,-0.2632,-0.2658,-0.2658,-0.2659,-0.2675,-0.2672,-0.2695,-0.2677,-0.267,-0.2676,-0.2675,-0.2692,-0.2694,-0.27,-0.2725,-0.2726,-0.2707,-0.2708,-0.2709,-0.2709,0,0,0,0,0,0,0,-0.2627,-0.2631,-0.2666,-0.2658,-0.2659,-0.2657,-0.266,-0.2676,-0.2684,-0.2671,-0.2671,-0.2673,-0.2692,-0.2699,-0.2701,-0.2726,-0.2707,-0.2709,-0.2709,-0.271,-0.2768,-0.2769,0,0,0,0,0,0,-0.2625,-0.263,-0.2665,-0.2667,-0.2642,-0.2659,-0.2662,-0.267,-0.2684,-0.2686,-0.2674,-0.2673,-0.2696,-0.2699,-0.2701,-0.2727,-0.2709,-0.271,-0.2711,-0.2768,-0.2768,-0.2769,0,0,0,0,0,0,-0.2624,-0.2629,-0.2664,-0.2648,-0.2652,-0.266,-0.267,-0.2671,-0.2677,-0.2686,-0.2688,-0.2679,-0.2696,-0.2699,-0.2718,-0.2728,-0.2711,-0.2712,-0.2767,-0.2768,-0.2769,-0.2778,0,0,0,0,0,0,-0.2623,-0.2628,-0.2637,-0.2648,-0.2653,-0.2681,-0.2671,-0.2672,-0.268,-0.2679,-0.2691,-0.2693,-0.2696,-0.2716,-0.2719,-0.273,-0.2713,-0.2766,-0.2767,-0.2769,-0.2777,-0.2779,-0.2781,0,0,0,0,0,-0.2621,-0.2639,-0.2637,-0.2641,-0.2664,-0.2681,-0.2684,-0.2687,-0.2681,-0.2689,-0.2695,-0.2693,-0.2726,-0.2718,-0.2722,-0.2732,-0.2766,-0.2767,-0.2768,-0.2776,-0.2779,-0.2781,0,0,0,0,0,0,-0.2629,-0.264,-0.2639,-0.266,-0.267,-0.2681,-0.2692,-0.269,-0.2701,-0.27,-0.2703,-0.2706,-0.2725,-0.273,-0.2721,-0.2753,-0.2745,-0.2747,-0.2749,-0.2752,-0.2754,-0.2753,-0.2715,0,0,0,0,0,-0.2633,-0.2646,-0.2655,-0.2673,-0.2678,-0.2684,-0.2691,-0.2693,-0.2702,-0.2706,-0.2713,-0.2723,-0.2735,-0.2744,-0.2756,-0.2777,-0.278,-0.2787,-0.2789,-0.279,-0.2793,-0.2804,-0.2807,-0.2774,-0.2774,-0.2774,0,0,-0.2642,-0.2649,-0.2658,-0.2675,-0.2682,-0.2695,-0.2687,-0.2702,-0.2711,-0.2709,-0.2727,-0.2732,-0.2743,-0.2763,-0.2772,-0.2768,-0.2802,-0.2792,-0.2793,-0.2795,-0.2805,-0.2809,-0.2811,-0.2775,-0.2775,-0.2775,0,0,-0.2664,-0.2672,-0.2687,-0.2695,-0.2706,-0.2709,-0.2713,-0.2723,-0.2727,-0.2745,-0.2743,-0.2754,-0.2775,-0.2783,-0.279,-0.2813,-0.2812,-0.2817,-0.2829,-0.2839,-0.2842,-0.2844,-0.2853,-0.2856,-0.2819,-0.2819,-0.2819,0,-0.2674,-0.2694,-0.2696,-0.271,-0.2718,-0.2715,-0.273,-0.2737,-0.2752,-0.2757,-0.2752,-0.2778,-0.2786,-0.2807,-0.2812,-0.2818,-0.2822,-0.2816,-0.2841,-0.2844,-0.2846,-0.2854,-0.2857,-0.282,-0.282,-0.282,-0.282,0,-0.2705,-0.2719,-0.273,-0.2744,-0.2752,-0.2767,-0.2771,-0.2779,-0.2779,-0.2783,-0.28,-0.2809,-0.2822,-0.2827,-0.2827,-0.2848,-0.2845,-0.2841,-0.2833,-0.285,-0.2857,-0.286,-0.2821,-0.282,-0.282,-0.282,0,0,-0.2735,-0.2748,-0.2752,-0.2758,-0.2769,-0.278,-0.2794,-0.2806,-0.2813,-0.2823,-0.2835,-0.2852,-0.2848,-0.2856,-0.2856,-0.2866,-0.2884,-0.286,-0.286,-0.2865,-0.2907,-0.291,-0.2914,-0.2882,-0.2883,-0.2883,-0.2906,0,-0.2759,-0.2785,-0.2786,-0.2809,-0.2821,-0.2818,-0.283,-0.2838,-0.2842,-0.2852,-0.2856,-0.2868,-0.2862,-0.2866,-0.2875,-0.288,-0.2892,-0.2878,-0.2893,-0.2894,-0.2891,-0.2918,-0.2922,-0.2943,-0.2909,-0.2909,-0.291,0,-0.2792,-0.2801,-0.2826,-0.2834,-0.2839,-0.285,-0.2861,-0.2871,-0.288,-0.2882,-0.2889,-0.2888,-0.2902,-0.2893,-0.2912,-0.2902,-0.2908,-0.2911,-0.2912,-0.2914,-0.2903,-0.2921,-0.295,-0.2953,-0.2914,-0.2914,-0.2914,0,-0.2811,-0.283,-0.2847,-0.2852,-0.2862,-0.287,-0.2874,-0.2882,-0.2889,-0.2899,-0.2903,-0.2914,-0.292,-0.2929,-0.293,-0.2923,-0.2949,-0.294,-0.2951,-0.2951,-0.2958,-0.2958,-0.2989,-0.2961,-0.2961,-0.2961,-0.2961,0,-0.2838,-0.2853,-0.2856,-0.2866,-0.2883,-0.2883,-0.2899,-0.2903,-0.291,-0.2921,-0.2918,-0.2928,-0.293,-0.294,-0.2941,-0.2957,-0.2959,-0.2961,-0.2961,-0.2962,-0.2962,-0.2966,-0.2965,-0.2961,-0.2961,-0.2961,-0.2961,0,-0.2864,-0.2866,-0.2884,-0.2891,-0.2894,-0.2905,-0.2912,-0.2921,-0.2924,-0.2937,-0.294,-0.2944,-0.2956,-0.2958,-0.2973,-0.2973,-0.2992,-0.299,-0.2989,-0.2989,-0.3,-0.2999,-0.3036,-0.3041,-0.3009,-0.301,-0.301,0,-0.2882,-0.2893,-0.2901,-0.2908,-0.2913,-0.2924,-0.2931,-0.2931,-0.2938,-0.2948,-0.2956,-0.2968,-0.2977,-0.2996,-0.3,-0.301,-0.301,-0.3022,-0.3011,-0.3011,-0.301,-0.301,-0.3011,-0.3024,-0.3024,-0.3025,-0.3025,0,-0.2913,-0.2913,-0.2923,-0.2933,-0.2941,-0.2949,-0.2957,-0.2963,-0.2964,-0.2972,-0.2984,-0.2991,-0.3005,-0.3016,-0.3026,-0.303,-0.3028,-0.3028,-0.3031,-0.3032,-0.3031,-0.3032,-0.2995,-0.3027,-0.3027,-0.3027,-0.3027,-0.3027,-0.2935,-0.2945,-0.2952,-0.2963,-0.2968,-0.2975,-0.2984,-0.2987,-0.2997,-0.3008,-0.3007,-0.302,-0.3027,-0.304,-0.3045,-0.3055,-0.3051,-0.3056,-0.3057,-0.3058,-0.3059,-0.3028,-0.3057,-0.3057,-0.3057,-0.3057,-0.3057,0,-0.2966,-0.297,-0.298,-0.2991,-0.2999,-0.2995,-0.3003,-0.301,-0.3021,-0.3028,-0.3036,-0.305,-0.306,-0.3064,-0.3074,-0.3081,-0.308,-0.3084,-0.3084,-0.3085,-0.3062,-0.3059,-0.3085,-0.3085,-0.3085,-0.3085,-0.3085,-0.3085,-0.2984,-0.2999,-0.3,-0.3018,-0.3022,-0.3034,-0.3039,-0.3045,-0.305,-0.3065,-0.3073,-0.3076,-0.3081,-0.3091,-0.31,-0.3101,-0.3105,-0.311,-0.311,-0.3089,-0.3086,-0.3084,-0.308,-0.311,-0.311,-0.3132,-0.3132,-0.3132]},{"header":{"parameterUnit":"m.s-1","parameterCategory":1,"la1":30.2991,"la2":30.254,"lo1":-89.0895,"lo2":-89.0444,"dy":0.0017,"dx":0.0017,"nx":28,"ny":28,"refTime":"2023-10-30T09:00:00:Z","depth":0,"parameterNumber":3,"parameterNumberName":"V-component_of_WINDS"},"data":[0,0,0,0,0,0,0,0,0,0,0,0,0,0,0,0,0,0,0,0,0,0,0,0,0,0,0,0,0,0,0,0,0,0,0,0,0,0,0,0,0,0,0,0,0,0,0,0,0,0,0,0,0,0,0,0,0,0,-7.8244,-7.8246,0,-7.8374,-7.8375,-7.8377,-7.8328,-7.8325,-7.8322,-7.8319,-7.8444,-7.845,-7.8456,0,0,0,0,0,0,0,0,0,0,0,0,0,-7.7947,-7.7953,-7.8244,-7.8246,-7.8247,-7.8374,-7.8375,-7.8377,-7.8328,-7.8325,-7.8321,-7.8318,-7.8442,-7.8449,-7.8456,0,0,0,0,0,0,0,0,0,0,0,0,0,-7.8076,-7.7955,-7.8244,-7.8238,-7.8239,-7.8373,-7.8376,-7.8378,-7.8329,-7.8324,-7.832,-7.8316,-7.844,-7.8448,-7.8457,-7.8602,0,0,-7.8485,-7.8489,0,0,0,0,0,0,0,0,-7.8069,-7.8087,-7.8238,-7.8239,-7.824,-7.833,-7.8316,-7.8453,-7.833,-7.8295,-7.8319,-7.8314,-7.8409,-7.842,-7.8454,-7.8608,-7.8613,-7.8486,-7.8492,-7.8495,-7.8498,0,0,0,0,0,0,0,-7.806,-7.8081,-7.8295,-7.824,-7.8241,-7.8227,-7.8241,-7.8342,-7.8375,-7.8297,-7.8294,-7.8311,-7.8409,-7.8446,-7.8457,-7.8615,-7.8486,-7.8494,-7.8499,-7.8503,-7.8894,-7.8899,0,0,0,0,0,0,-7.8052,-7.8074,-7.8291,-7.8299,-7.8142,-7.8236,-7.8251,-7.8306,-7.8374,-7.838,-7.8314,-7.8308,-7.8432,-7.8446,-7.8461,-7.8635,-7.8495,-7.8504,-7.8509,-7.8889,-7.8895,-7.89,0,0,0,0,0,0,-7.8045,-7.8071,-7.8286,-7.8186,-7.8212,-7.8246,-7.8308,-7.8311,-7.8347,-7.8387,-7.8391,-7.8346,-7.8429,-7.8448,-7.8568,-7.8639,-7.8508,-7.8516,-7.8883,-7.8891,-7.8898,-7.8985,0,0,0,0,0,0,-7.8037,-7.807,-7.8127,-7.8188,-7.8218,-7.8393,-7.8312,-7.8316,-7.8364,-7.8357,-7.8418,-7.8423,-7.8427,-7.8555,-7.8577,-7.8649,-7.8523,-7.8877,-7.8887,-7.8895,-7.8976,-7.8994,-7.901,0,0,0,0,0,-7.8027,-7.8144,-7.813,-7.8156,-7.829,-7.8397,-7.8414,-7.8418,-7.837,-7.8427,-7.8452,-7.8422,-7.8628,-7.8567,-7.8592,-7.8668,-7.8873,-7.8884,-7.8895,-7.8968,-7.899,-7.901,0,0,0,0,0,0,-7.8087,-7.8152,-7.8137,-7.8278,-7.8333,-7.8389,-7.846,-7.8442,-7.851,-7.85,-7.85,-7.8514,-7.8638,-7.8664,-7.8596,-7.8811,-7.8742,-7.8759,-7.879,-7.8811,-7.8828,-7.8819,-7.8531,0,0,0,0,0,-7.8118,-7.8202,-7.8253,-7.8372,-7.8401,-7.8426,-7.8473,-7.8472,-7.8528,-7.855,-7.8584,-7.8637,-7.8714,-7.8764,-7.8837,-7.8979,-7.8991,-7.9044,-7.9061,-7.9075,-7.9089,-7.9166,-7.9189,-7.8937,-7.8937,-7.8937,0,0,-7.818,-7.8226,-7.8278,-7.8386,-7.8428,-7.8513,-7.8446,-7.8538,-7.8601,-7.8563,-7.8679,-7.8706,-7.8765,-7.8897,-7.8957,-7.8923,-7.9161,-7.9089,-7.91,-7.9106,-7.918,-7.9203,-7.9225,-7.8944,-7.8943,-7.8942,0,0,-7.8337,-7.8381,-7.8486,-7.853,-7.8597,-7.8613,-7.8638,-7.8698,-7.8715,-7.8832,-7.8806,-7.8878,-7.9011,-7.9054,-7.9094,-7.9269,-7.9243,-7.9292,-7.9382,-7.9457,-7.9477,-7.9494,-7.9557,-7.9579,-7.9306,-7.9307,-7.9307,0,-7.8406,-7.8536,-7.8541,-7.8637,-7.8684,-7.8657,-7.8762,-7.8804,-7.8889,-7.8922,-7.8884,-7.905,-7.9088,-7.923,-7.9273,-7.9306,-7.9333,-7.9285,-7.9474,-7.9492,-7.9508,-7.9567,-7.9591,-7.9312,-7.9312,-7.9311,-7.931,0,-7.8616,-7.8707,-7.8783,-7.887,-7.8926,-7.9025,-7.9044,-7.9099,-7.9093,-7.9113,-7.9232,-7.9277,-7.9359,-7.9392,-7.9386,-7.9533,-7.9511,-7.9474,-7.9404,-7.9538,-7.9593,-7.9616,-7.932,-7.9318,-7.9316,-7.9315,0,0,-7.8814,-7.8905,-7.8932,-7.8972,-7.9043,-7.9112,-7.921,-7.9293,-7.934,-7.94,-7.9481,-7.9594,-7.9561,-7.9606,-7.9604,-7.967,-7.9806,-7.9625,-7.9626,-7.9657,-7.997,-7.9998,-8.0024,-7.979,-7.9794,-7.9798,-7.9965,0,-7.8977,-7.9152,-7.9161,-7.9319,-7.9402,-7.9377,-7.9462,-7.9514,-7.9536,-7.9607,-7.9629,-7.971,-7.966,-7.9687,-7.9751,-7.9776,-7.9869,-7.9764,-7.9863,-7.9867,-7.9849,-8.0053,-8.0082,-8.0238,-7.9987,-7.9991,-7.9993,0,-7.919,-7.9261,-7.9428,-7.9489,-7.9524,-7.9601,-7.9677,-7.9747,-7.9805,-7.9815,-7.9867,-7.9856,-7.9954,-7.9882,-8.0016,-7.9944,-7.9985,-8.0004,-8.001,-8.0019,-7.9938,-8.0067,-8.0288,-8.0311,-8.0028,-8.0025,-8.0023,0,-7.9318,-7.9454,-7.9572,-7.9606,-7.968,-7.9735,-7.9767,-7.9821,-7.9871,-7.9937,-7.9968,-8.0044,-8.0085,-8.0143,-8.0152,-8.0099,-8.0286,-8.0215,-8.0296,-8.0296,-8.0336,-8.0333,-8.0566,-8.0363,-8.0363,-8.0363,-8.0362,0,-7.9499,-7.9602,-7.9631,-7.9703,-7.9818,-7.9825,-7.9937,-7.9966,-8.0014,-8.009,-8.0072,-8.0143,-8.0152,-8.0224,-8.0232,-8.0341,-8.036,-8.037,-8.037,-8.0371,-8.037,-8.0397,-8.0386,-8.0369,-8.0367,-8.0366,-8.0365,0,-7.966,-7.9684,-7.9811,-7.9871,-7.9889,-7.9971,-8.0021,-8.0089,-8.0109,-8.0205,-8.0228,-8.0258,-8.0343,-8.0359,-8.0457,-8.0462,-8.0593,-8.0583,-8.0575,-8.0573,-8.0653,-8.0646,-8.0912,-8.0947,-8.0722,-8.0724,-8.0726,0,-7.9774,-7.9853,-7.9923,-7.9975,-8.0011,-8.0093,-8.0144,-8.0154,-8.0208,-8.0281,-8.034,-8.0423,-8.0491,-8.0627,-8.0656,-8.0731,-8.0722,-8.0811,-8.0733,-8.0732,-8.0723,-8.0718,-8.0726,-8.0825,-8.0827,-8.0829,-8.0831,0,-7.9973,-7.9981,-8.0057,-8.0138,-8.02,-8.0263,-8.0323,-8.0365,-8.0383,-8.0443,-8.0532,-8.0584,-8.0687,-8.0769,-8.0845,-8.0875,-8.0856,-8.0856,-8.0878,-8.0879,-8.0871,-8.0877,-8.0615,-8.0849,-8.0847,-8.0846,-8.0845,-8.0844,-8.0114,-8.0184,-8.0244,-8.033,-8.0376,-8.0433,-8.0501,-8.053,-8.0605,-8.0691,-8.0692,-8.0788,-8.0843,-8.0943,-8.0979,-8.1053,-8.1024,-8.1057,-8.1065,-8.1073,-8.1081,-8.0861,-8.1066,-8.1066,-8.1065,-8.1065,-8.1065,0,-8.0312,-8.035,-8.0429,-8.0515,-8.0581,-8.0561,-8.0626,-8.0682,-8.0768,-8.0823,-8.089,-8.0991,-8.1072,-8.1108,-8.1186,-8.1238,-8.1231,-8.1259,-8.1254,-8.1262,-8.1102,-8.1074,-8.1263,-8.1263,-8.1263,-8.1263,-8.1263,-8.1263,-8.0423,-8.054,-8.0555,-8.0695,-8.0731,-8.0828,-8.0867,-8.0919,-8.0962,-8.1077,-8.1145,-8.1169,-8.1216,-8.1298,-8.137,-8.1379,-8.1408,-8.1439,-8.1443,-8.1293,-8.1273,-8.1254,-8.1228,-8.1446,-8.1446,-8.1597,-8.1598,-8.1599]}]]